Location: Unspecified
(58.7730°N, 5.8460°E)
Time: 01:00:44
(UTC+02:00)

Cosmos 1674 - Visible Passes

Search period start: 25 July 2014 00:00
Search period end: 04 August 2014 00:00
Orbit: 516 x 543 km, 82.5° (Epoch: 24 July)

Date Brightness Start Highest point End Pass type
(mag) Time Alt. Az. Time Alt. Az. Time Alt. Az.
27 Jul 5.1 04:07:59 10° N 04:11:24 27° ENE 04:14:45 10° ESE visible
28 Jul 5.1 03:57:21 10° N 04:00:42 26° ENE 04:04:00 10° ESE visible
29 Jul 5.2 03:46:43 10° N 03:50:00 25° ENE 03:53:14 10° ESE visible
30 Jul 5.2 03:36:04 10° N 03:39:17 24° ENE 03:42:28 10° ESE visible
31 Jul 5.2 03:25:26 10° N 03:28:35 23° ENE 03:31:42 10° ESE visible
01 Aug 5.3 03:14:48 10° N 03:17:53 22° ENE 03:20:55 10° ESE visible
02 Aug 5.3 03:04:10 10° N 03:07:10 21° ENE 03:10:08 10° ESE visible
03 Aug 5.3 02:53:32 10° N 02:56:27 20° ENE 02:59:21 10° ESE visible
03 Aug 2.7 04:29:02 10° NNW 04:32:55 69° W 04:36:44 10° S visible
